FW6635 Weather Reports


Display with metric or nautical units.
time (UTC)temp
F
wind
direction
speed
MPH
gust
MPH
rain 1hr
in
rain 24hr
in
rain mn
in
humidity
%
barometer
mb
20260906094605 71 0 0.0 3.0 0.00 0.39 0.01 97 1012.8
20260906093102 71 0 0.0 2.0 0.00 0.39 0.01 97 1012.7
20260906091556 71 0 0.0 1.0 0.00 0.39 0.01 97 1012.7
20260906090058 71 0 0.0 2.0 0.00 0.39 0.01 97 1012.5
20260906084602 71 0 0.0 2.0 0.00 0.39 0.01 97 1012.6
20260906083103 71 0 0.0 0.0 0.00 0.39 0.01 97 1012.4
20260906081558 71 0 0.0 0.0 0.00 0.39 0.01 97 1012.3
20260906080058 71 0 0.0 0.0 0.00 0.39 0.01 97 1012.2
20260906074557 71 0 0.0 0.0 0.00 0.39 0.01 97 1012.4
20260906073057 71 0 0.0 0.0 0.00 0.39 0.01 97 1012.5
20260906071557 71 0 0.0 0.0 0.00 0.39 0.01 97 1012.4
20260906070059 71 0 0.0 0.0 0.00 0.39 0.01 97 1012.3
20260906064556 71 0 0.0 0.0 0.00 0.39 0.01 97 1012.4
20260906063059 71 0 0.0 0.0 0.00 0.39 0.01 97 1012.6
20260906061602 71 0 0.0 0.0 0.00 0.39 0.01 97 1012.6
20260906060135 71 0 0.0 0.0 0.00 0.39 0.01 97 1012.9
20260906054608 72 360 0.0 5.0 0.00 0.39 0.01 97 1013.0
20260906053058 72 0 0.0 0.0 0.00 0.39 0.01 97 1013.1
20260906051600 72 0 0.0 0.0 0.01 0.39 0.01 96 1013.2
20260906050057 72 0 0.0 0.0 0.01 0.39 0.01 96 1013.2
20260906044600 72 0 0.0 0.0 0.01 0.39 0.01 97 1013.3
20260906043057 72 0 0.0 0.0 0.01 0.39 0.01 96 1013.3
20260906041559 72 0 0.0 0.0 0.00 0.38 0.00 96 1013.4
20260906034606 72 0 0.0 2.0 0.00 0.38 0.38 96 1013.4
20260906033102 72 0 0.0 0.0 0.00 0.38 0.38 96 1013.6
20260906031602 72 0 0.0 0.0 0.00 0.38 0.38 96 1013.7
20260906030057 72 0 0.0 0.0 0.00 0.38 0.38 96 1013.7
20260906024603 72 0 0.0 0.0 0.00 0.38 0.38 96 1014.1
20260906023100 73 250 1.0 3.0 0.00 0.38 0.38 96 1014.1
20260906021601 73 0 1.0 5.0 0.00 0.38 0.38 96 1014.0
20260906020104 73 0 0.0 0.0 0.00 0.38 0.38 96 1013.8
20260906014559 73 0 0.0 0.0 0.00 0.38 0.38 96 1013.5
20260906013101 73 0 0.0 0.0 0.00 0.38 0.38 95 1013.1
20260906011600 73 0 0.0 0.0 0.00 0.38 0.38 95 1013.0
20260906010146 73 0 0.0 3.0 0.00 0.38 0.38 95 1013.0
20260906004616 73 191 1.0 3.0 0.00 0.38 0.38 95 1012.5
20260906003059 73 191 2.0 5.0 0.00 0.38 0.38 95 1012.7
20260906001607 73 0 0.0 4.0 0.01 0.38 0.38 94 1012.7
20260905234601 73 29 1.0 7.0 0.38 0.38 0.38 93 1012.5
20260905233058 73 96 3.0 10.0 0.38 0.38 0.38 91 1013.0
20260905231556 74 121 5.0 15.0 0.37 0.37 0.37 90 1013.9
20260905224559 83 59 7.0 21.0 0.00 0.00 0.00 67 1014.4
20260905223101 93 34 9.0 21.0 0.00 0.00 0.00 53 1013.4
20260905221559 97 0 1.0 4.0 0.00 0.00 0.00 56 1011.6
20260905214554 100 165 1.0 5.0 0.00 0.00 0.00 50 1011.3
20260905213103 100 159 1.0 5.0 0.00 0.00 0.00 47 1011.2
20260905211609 100 156 2.0 8.0 0.00 0.00 0.00 49 1011.2
20260905210116 100 147 0.0 6.0 0.00 0.00 0.00 49 1011.3
20260905204600 100 178 3.0 6.0 0.00 0.00 0.00 47 1011.5
20260905203102 100 205 3.0 6.0 0.00 0.00 0.00 47 1011.4
20260905201557 99 192 2.0 7.0 0.00 0.00 0.00 53 1011.5
20260905200122 99 163 1.0 8.0 0.00 0.00 0.00 51 1011.6
20260905194602 99 309 2.0 8.0 0.00 0.00 0.00 49 1011.8
20260905193108 99 134 0.0 6.0 0.00 0.00 0.00 52 1011.9
20260905191603 99 189 2.0 6.0 0.00 0.00 0.00 49 1012.2
20260905190106 98 192 3.0 9.0 0.00 0.00 0.00 51 1012.5
20260905184625 98 187 4.0 7.0 0.00 0.00 0.00 53 1012.8
20260905183058 98 145 3.0 8.0 0.00 0.00 0.00 53 1013.1
20260905181604 97 213 1.0 7.0 0.00 0.00 0.00 54 1013.2
20260905180056 97 198 4.0 8.0 0.00 0.00 0.00 56 1013.5
20260905174610 96 270 1.0 8.0 0.00 0.00 0.00 54 1013.7
20260905173102 96 169 1.0 4.0 0.00 0.00 0.00 58 1013.8
20260905171557 95 331 2.0 5.0 0.00 0.00 0.00 58 1013.9
20260905170107 95 0 1.0 6.0 0.00 0.00 0.00 59 1014.1
20260905164600 93 0 3.0 6.0 0.00 0.00 0.00 64 1014.4
20260905163102 92 224 3.0 7.0 0.00 0.00 0.00 64 1014.8
20260905161558 92 280 3.0 7.0 0.00 0.00 0.00 67 1015.1
20260905154605 89 275 2.0 8.0 0.00 0.00 0.00 71 1015.6
20260905153103 88 272 1.0 8.0 0.00 0.00 0.00 74 1015.5
20260905151638 87 301 2.0 8.0 0.00 0.00 0.00 76 1015.7
20260905144559 85 275 2.0 7.0 0.00 0.00 0.00 80 1016.1
20260905143101 84 263 3.0 8.0 0.00 0.00 0.00 81 1016.0
20260905141558 83 240 1.0 8.0 0.00 0.00 0.00 84 1016.1
20260905140104 81 235 2.0 8.0 0.00 0.00 0.00 86 1016.4
20260905134559 81 290 3.0 8.0 0.00 0.00 0.00 89 1016.3
20260905133057 79 258 3.0 9.0 0.00 0.00 0.00 91 1016.3
20260905131607 78 261 1.0 6.0 0.00 0.00 0.00 94 1016.4
20260905124601 77 268 1.0 6.0 0.00 0.00 0.00 96 1016.4
20260905123112 76 269 1.0 4.0 0.00 0.00 0.00 96 1016.4
20260905121556 76 271 1.0 4.0 0.00 0.00 0.00 96 1016.2
20260905114600 76 0 0.0 0.0 0.00 0.00 0.00 96 1016.0
20260905113112 75 0 0.0 4.0 0.00 0.00 0.00 96 1015.8
20260905111600 75 269 0.0 3.0 0.00 0.00 0.00 96 1015.7
20260905110055 76 263 1.0 7.0 0.00 0.00 0.00 96 1015.7
20260905104608 76 281 2.0 4.0 0.00 0.00 0.00 96 1015.7
20260905103104 76 0 0.0 4.0 0.00 0.00 0.00 96 1015.6
20260905101604 76 279 1.0 4.0 0.00 0.00 0.00 96 1015.6
20260905100109 76 0 0.0 0.0 0.00 0.00 0.00 96 1015.3